TimeMDT,TemperatureF,Dew PointF,Humidity,Sea Level PressureIn,VisibilityMPH,Wind Direction,Wind SpeedMPH,Gust SpeedMPH,PrecipitationIn,Events,Conditions,WindDirDegrees,DateUTC
4:12 AM,43.5,22.1,43,29.94,10.0,West,11.5,19.6,N/A,,Clear,280,2012-10-13 10:12:00
4:52 AM,39.2,21.2,49,29.94,10.0,NW,6.9,-,N/A,,Clear,320,2012-10-13 10:52:00
5:12 AM,36.1,21.9,56,29.94,10.0,NW,10.4,-,N/A,,Clear,310,2012-10-13 11:12:00
5:32 AM,38.7,21.2,50,29.93,10.0,WNW,12.7,-,N/A,,Clear,290,2012-10-13 11:32:00
5:52 AM,40.5,20.8,46,29.93,10.0,NW,9.2,-,N/A,,Clear,320,2012-10-13 11:52:00
6:12 AM,39.6,20.3,46,29.94,10.0,WNW,8.1,-,N/A,,Clear,300,2012-10-13 12:12:00
6:32 AM,37.9,20.1,49,29.94,10.0,NNW,5.8,-,N/A,,Clear,340,2012-10-13 12:32:00
6:51 AM,36.5,21.2,54,29.93,10.0,WNW,9.2,-,N/A,,Clear,300,2012-10-13 12:51:00
7:12 AM,37.6,21.0,51,29.93,10.0,NW,9.2,-,N/A,,Clear,310,2012-10-13 13:12:00
7:51 AM,42.8,21.2,42,29.94,10.0,NW,9.2,-,N/A,,Clear,310,2012-10-13 13:51:00
8:31 AM,47.7,21.6,36,29.96,10.0,WNW,10.4,-,N/A,,Clear,290,2012-10-13 14:31:00
8:51 AM,50.7,22.3,33,29.96,10.0,NW,11.5,17.3,N/A,,Mostly Cloudy,310,2012-10-13 14:51:00
9:11 AM,49.5,23.0,35,29.96,10.0,NW,11.5,17.3,N/A,,Overcast,320,2012-10-13 15:11:00
9:31 AM,52.2,23.9,33,29.96,10.0,NNW,10.4,19.6,N/A,,Mostly Cloudy,330,2012-10-13 15:31:00
9:51 AM,52.0,26.1,37,29.96,10.0,North,13.8,20.7,N/A,,Mostly Cloudy,350,2012-10-13 15:51:00
10:11 AM,51.4,25.5,37,29.98,10.0,NNW,13.8,20.7,N/A,,Overcast,340,2012-10-13 16:11:00
10:31 AM,50.9,24.6,36,29.98,10.0,NNW,16.1,25.3,N/A,,Overcast,340,2012-10-13 16:31:00
10:51 AM,50.2,26.1,39,29.98,10.0,North,11.5,21.9,N/A,,Mostly Cloudy,360,2012-10-13 16:51:00
11:11 AM,51.1,26.4,38,29.97,10.0,North,9.2,-,N/A,,Scattered Clouds,350,2012-10-13 17:11:00
11:31 AM,52.9,24.1,33,29.96,10.0,NNW,12.7,23.0,N/A,,Scattered Clouds,330,2012-10-13 17:31:00
12:11 PM,52.3,27.3,38,29.96,10.0,NNW,16.1,26.5,N/A,,Scattered Clouds,330,2012-10-13 18:11:00
12:31 PM,51.3,29.7,44,29.97,10.0,NNW,18.4,28.8,N/A,,Mostly Cloudy,330,2012-10-13 18:31:00
12:51 PM,50.9,30.7,46,29.96,10.0,NNW,16.1,25.3,N/A,,Overcast,340,2012-10-13 18:51:00
1:11 PM,48.2,33.4,57,29.97,10.0,NNW,17.3,29.9,N/A,,Overcast,340,2012-10-13 19:11:00
1:31 PM,48.7,33.8,56,29.96,10.0,NNW,12.7,23.0,N/A,,Overcast,330,2012-10-13 19:31:00
1:51 PM,50.0,33.1,52,29.96,10.0,NNW,18.4,25.3,N/A,,Scattered Clouds,340,2012-10-13 19:51:00
2:31 PM,46.0,37.6,72,29.99,10.0,North,16.1,26.5,N/A,,Light Drizzle,350,2012-10-13 20:31:00
2:51 PM,45.5,39.0,78,29.99,10.0,NNW,17.3,26.5,N/A,,Light Drizzle,340,2012-10-13 20:51:00
3:11 PM,45.7,39.2,78,29.99,10.0,NW,20.7,27.6,N/A,,Light Drizzle,320,2012-10-13 21:11:00
3:31 PM,47.3,39.2,73,29.99,10.0,NW,23.0,34.5,N/A,,Overcast,320,2012-10-13 21:31:00
3:51 PM,45.5,38.8,78,29.99,5.0,NNW,24.2,42.6,N/A,,Haze,330,2012-10-13 21:51:00
4:11 PM,46.6,39.7,77,29.99,10.0,NNW,26.5,36.8,N/A,Rain,Rain,330,2012-10-13 22:11:00
4:31 PM,48.2,39.2,71,29.99,10.0,NNW,20.7,33.4,N/A,,Scattered Clouds,330,2012-10-13 22:31:00
4:51 PM,49.3,37.6,64,29.99,10.0,NNW,19.6,34.5,N/A,,Scattered Clouds,340,2012-10-13 22:51:00
5:11 PM,49.3,37.6,64,30.00,10.0,NNW,24.2,36.8,N/A,,Scattered Clouds,340,2012-10-13 23:11:00
5:31 PM,48.2,38.1,68,30.03,10.0,North,27.6,42.6,N/A,,Mostly Cloudy,350,2012-10-13 23:31:00
6:31 PM,46.4,38.3,73,30.08,10.0,NNW,13.8,23.0,N/A,,Clear,330,2012-10-14 00:31:00
6:51 PM,45.7,38.3,75,30.09,10.0,NW,13.8,18.4,N/A,,Clear,310,2012-10-14 00:51:00
7:11 PM,45.5,37.9,75,30.10,10.0,NW,11.5,17.3,N/A,,Scattered Clouds,310,2012-10-14 01:11:00
7:31 PM,45.5,37.0,72,30.11,10.0,NNW,10.4,18.4,N/A,,Scattered Clouds,330,2012-10-14 01:31:00
8:11 PM,43.7,36.5,76,30.13,10.0,WNW,10.4,-,N/A,,Scattered Clouds,300,2012-10-14 02:11:00
8:31 PM,43.9,36.0,74,30.14,10.0,WNW,11.5,-,N/A,,Scattered Clouds,300,2012-10-14 02:31:00
8:51 PM,44.1,36.5,75,30.15,10.0,North,10.4,-,N/A,,Scattered Clouds,360,2012-10-14 02:51:00
9:11 PM,42.8,36.7,79,30.16,10.0,NNW,4.6,-,N/A,,Scattered Clouds,330,2012-10-14 03:11:00
10:11 PM,44.8,33.6,65,30.18,10.0,WNW,11.5,-,N/A,,Overcast,300,2012-10-14 04:11:00
10:31 PM,44.2,34.7,69,30.18,10.0,NNW,8.1,-,N/A,,Mostly Cloudy,330,2012-10-14 04:31:00